Domov               UVHVVR             MKGP            O straneh              
ZDRAVSTVENO VARSTVO RASTLIN
  MREŽA AGROMET. POSTAJ
 ► PROGNOSTIČNA OBVESTILA
AGROMETEOROLOŠKI PODATKI -
ARSO
OBVLADOVANJE TVEGANJ ZARADI
NEUGODNIH VREMENSKIH RAZMER
  ► NARAVNE NESREČE
  ► SUŠA/MOČA
  ► NAMAKANJE
  ► ŽLED (gozdarstvo)
KARTOGRAFSKI PRIKAZI
SPLETNE POVEZAVE
PROJEKTI IN PUBLIKACIJE

AGROMETEOROLOŠKA MREŽA: VREMENSKE POSTAJE IN FENOLOŠKA OPAZOVANJA

Pregled podatkov za lokacijo Stara Nova vas, meteorološka postaja 49162

Pregled senzorjev na lokaciji

ID Ime Zadnja
vrednost
Datum
zadnje
spremembe
Tip
senzorja
3704 Temperatura 2 m ( °C) 9,66 °C 17.10.2017 23:29 50YA
3705 Relativna vlaga 2 m (% RH) 100 % RH 17.10.2017 23:30 50YA
3706 Omočenost lista (U) 10 U 17.10.2017 23:30 A730WET
3707 Sončno sevanje (W/m2) 0,46 W/m2 17.10.2017 23:30 Pyranometer SP-Lite
3708 Temperatura tal ( °C) 11,53 °C 17.10.2017 23:30 99TG411E
3709 Hitrost vetra (km/h) 0,11 km/h 17.10.2017 23:29 566.2S-176 (200km/h)
3710 Smer vetra (°) 278,77 ° 17.10.2017 23:30 566.2S-130
3711 Padavine 0.2 mm (mm) 0 mm 17.10.2017 23:30 Rain-O-Matic

Pregled podatkov zadnjih 24 ur

Zap.
št.
Datum in čas Stara Nova vas
Hitrost
vetra
Omočenost
lista
Padavine
0.2
mm
Relativna
vlaga
2
m
Smer
vetra
Sončno
sevanje
Temperatura
2
m
Temperatura
tal
0 17.10.2017 22:30 0,11 10 0 100 278,77 0,46 9,66 11,53
1 17.10.2017 22:00 0,11 10 0 100 279,05 0,55 10,06 11,6
2 17.10.2017 21:30 0,11 10 0 100 279,07 0,52 10,35 11,67
3 17.10.2017 21:00 0,11 10 0 100 225,75 0,55 10,43 11,75
4 17.10.2017 20:30 0,11 10 0 100 225,17 0,52 10,77 11,83
5 17.10.2017 20:00 0,11 10 0 100 225,88 0,58 11,75 11,92
6 17.10.2017 19:30 0,11 10 0 100 225,5 0,55 12,23 12,01
7 17.10.2017 19:00 0,11 10 0 100 224,82 0,55 12,49 12,1
8 17.10.2017 18:30 0,11 10 0 100 225,54 0,58 12,89 12,2
9 17.10.2017 18:00 0,11 10 0 99,78 225,27 0,52 13,79 12,28
10 17.10.2017 17:30 0,11 9 0 95,27 227,21 1,74 15,22 12,37
11 17.10.2017 17:00 0,11 0 0 84,05 191,47 18,31 18,12 12,46
12 17.10.2017 16:30 0,66 0 0 68,83 154,03 57,8 20,67 12,5
13 17.10.2017 16:00 3,65 0 0 61,63 150,04 109,19 21,92 12,5
14 17.10.2017 15:30 4,76 0 0 58,43 134,73 161,81 22,57 12,47
15 17.10.2017 15:00 4,1 0 0 57,8 105,64 232,33 23,13 12,42
16 17.10.2017 14:30 2,77 0 0 60,33 148,74 275,85 22,99 12,35
17 17.10.2017 14:00 3,46 0 0 59,8 141,46 372,53 23,13 12,29
18 17.10.2017 13:30 2,61 0 0 59,89 82,32 412,18 22,84 12,19
19 17.10.2017 13:00 3,74 0 0 62,78 198,48 452,58 22,18 12,08
20 17.10.2017 12:30 3,4 0 0 63,83 100,36 466,38 21,9 11,95
21 17.10.2017 12:00 2,62 0 0 65,93 142,88 466,96 21,21 11,8
22 17.10.2017 11:30 3,26 0 0 68,57 98,29 475,56 20,09 11,63
23 17.10.2017 11:00 4,32 0 0 70,68 134,38 457,59 19,5 11,44
24 17.10.2017 10:30 1,89 0 0 76,74 134,94 426,73 18,5 11,25
25 17.10.2017 10:00 1,59 9 0 88,3 71,8 385,6 16,6 11,09
26 17.10.2017 09:30 2,25 10 0 100 95,63 334,17 13,53 10,93
27 17.10.2017 09:00 0,26 10 0 100 98,69 274,2 11,4 10,79
28 17.10.2017 08:30 0,11 10 0 100 70,84 208,77 9,66 10,65
29 17.10.2017 08:00 0,11 10 0 100 181,34 106,32 7,63 10,58
30 17.10.2017 07:30 0,11 10 0 100 179,64 52,95 6,48 10,53
31 17.10.2017 07:00 0,11 10 0 100 61,25 22,37 5,73 10,52
32 17.10.2017 06:30 0,11 10 0 100 209,25 4,76 5,51 10,55
33 17.10.2017 06:00 0,11 10 0 100 206,84 0,7 5,56 10,58
34 17.10.2017 05:30 0,11 10 0 100 206,78 0,52 5,78 10,62
35 17.10.2017 05:00 0,11 10 0 100 207,16 0,55 5,38 10,67
36 17.10.2017 04:30 0,11 10 0 100 206,96 0,49 5,64 10,72
37 17.10.2017 04:00 0,11 10 0 100 25,69 0,46 6,02 10,79
38 17.10.2017 03:30 0,11 10 0 100 54,72 0,46 6,32 10,85
39 17.10.2017 03:00 0,11 10 0 100 286,81 0,49 6,41 10,9
40 17.10.2017 02:30 0,11 10 0 100 286,67 0,52 6,67 10,93
41 17.10.2017 02:00 0,11 10 0 100 292,42 0,55 6,86 11,01
42 17.10.2017 01:30 0,11 10 0 100 300,33 0,52 7,16 11,07
43 17.10.2017 01:00 0,11 10 0 100 202,11 0,55 7,22 11,15
44 17.10.2017 00:30 0,11 10 0 100 201,84 0,52 7,48 11,22
© 2011 Ministrstvo za kmetijstvo, gozdarstvo in prehrano. Vse pravice pridržane.